Location: Davidschlag
(48.4333°N, 14.2833°E)
Time: 18:37:15
(UTC+00:00)

STARLINK-59 - Pass Details

Date: 27 February 2020
Orbit: 529 x 530 km, 53.0° (Epoch: 06 April)

Event Time Altitude Azimuth Distance (km) Brightness Sun altitude
Rises 17:53:47 0° 280° (W) 2,669 9.1 -12.6°
Reaches altitude 10° 17:56:05 10° 287° (WNW) 1,780 7.5 -12.9°
Maximum altitude 17:59:56 42° 359° (N) 766 4.3 -13.6°
Enters shadow 18:02:23 20° 62° (ENE) 1,273 5.0 -14.0°
